Pagrindinis puslapis
METAR-TAF:

METAR-TAF

Oro uostai :

Fasa, Iranas

platuma: 28-58N, ilguma: 053-41E, Aukštis: 1383 m

Dabartinis oras

Ataskaita buvo paskelbta 1 valandą ir 13 minutes, ne 20:00 UTC
Vėjas 4 kt iš Rytų/Pietryčių
Temperatūra 34°C
Drėgmė 13%
Slėgis 1007 hPa
Matomumas 10 km arba daugiau
nėra debesų žemiau 1500 m ir nėra kamuolinių lietaus debesų

METAR: OISF 172000Z 11004KT CAVOK 34/02 Q1007 A2974

Laikas: 01:43 (21:13 UTC)


TAF: trūkstamas

Orai ataskaitas ir orų prognozės (METAR, TAF).

turimą stotys yra geltonos ir raudonos taškus žemėlapyje.

Perkelti pele per norėdami pamatyti stoties vardą.

Tada spustelėkite, norėdami matyti oro stebėjimo ir prognozės.

Norėdami pakeisti žemėlapį: spustelėkite ant žalios mygtukų su juodo kryžiaus žemyn,; žalią mygtuką su brūkšneliu, jei norite nutolinti; arba žalių rodyklių gretimoms žemėlapius.


METAR-TAF: